Terminal Aerodrome Forecast
Issued by NWS

Home | Current Version | Previous Version | Text Only | Print | Product List | Glossary On
Versions: 1 2 3 4 5 6 7 8 9 10 11 12 13 14 15 16 17 18 19 20 21 22 23 24 25 26
000
FTUS41 KOKX 011900 AAA
TAFHPN
TAF AMD
KHPN 011931Z 0120/0218 02006KT P6SM BKN008 OVC020
      TEMPO 0120/0123 SCT008
     FM020200 36010KT P6SM OVC012
     FM021600 36012G18KT P6SM OVC020
      AMD NOT SKED=

USA.gov is the U.S. government's official web portal to all federal, state and local government web resources and services.